STARLINK-5964, 56009

Orbit data source: Space-Track

STARLINK-5964, 56009 is a payload satellite owned by SpaceX/Seattle (US) in LEO that was launched on Fri, 24 Mar 2023 UTC via an FALCON 9 launch vehicle from the Air Force Eastern Test Range (AFETR). Payload-class satellites include a variety of spacecraft equipped with specific instruments for various scientific and technological missions. These include communications satellites like Starlink; space stations such as the ISS; scientific satellites like the Hubble; Earth observation satellites from companies like Planet Labs, Umbra, and HawkEye 360; GPS; miniature CubeSats for education and research; and military/defense satellites.

Loading next visibility...
Identifier
56009, 2023-042Z
Orbit
LEO
Country
Flag of USUS
Related business
Manufacturer
SpaceX/Seattle
Mission
Operational Commercial Communications
Bus & Motor
STARLINK, Unknown motor
Mass
305 kg wet, ~290 kg dry
Launch date (UTC)
2023-03-24 (3 years ago)
Launch vehicle
FALCON 9
Launch site
Air Force Eastern Test Range (AFETR)
Object type
Payload
Rocket body
Debris
Shape & HBR
Box + 1 Pan, 10.1 m
Radar Cross Section
11.087 m², Large (>1 m²)

Expand to show TLE details & history
Last TLE update: 2 days ago

TLE from 2 days ago
0 STARLINK-5964
1 56009U 23042Z   26171.37500175  .00000762  00000-0  37222-4 0  9991
2 56009  43.0020 203.1207 0001423 282.4735  77.5957 15.27573432178530
Epoch: 2026-06-20T09:00Z
TLE epoch observation values (Epoch: 2026-06-20T09:00:00.151Z)
Latitude
-0.00003°
Longitude
159.5295°
Altitude
482.635 km
Speed
7.626 km/s
True Right ascension
13h 32m 28s
True Declination
0° 00' 00"
Sunlit
Object was in full shadow at epoch
Visualization orbit readout
Latitude
Unknown
Longitude
Unknown
Altitude
Unknown
Speed
Unknown
Apparent Right ascension
Unknown
Apparent Declination
Unknown
Sunlit
N/A
Visualization observer readout
Local Sidereal Time
21:25:51
Azimuth
Unknown
Elevation
Unknown
Doppler factor
Unknown
Orbital elements
Apogee altitude
485.99 km
Perigee altitude
484.037 km
Semi-major axis
6,863.151 km
Eccentricity
0.00014
Inclination
43.002°
RAAN
203.1207°
Arg. of periapsis
282.4735°
True anomaly
77.61163°
Mean anomaly
77.5957°
Eccentric anomaly
77.60366°
Mean motion
3.81731 °/min
Orbital period
94.31 mins
BSTAR
0.000037222
Loading maneuver chart data...
Computing Atmospheric mass density...
Loading historical data...
Loading historical data...
Loading historical data...
Loading historical data...
Loading historical data...
Loading historical data...
Loading historical data...

Documentation

Showing up to 5 results
|